Time,TemperatureF,DewpointF,PressureIn,WindDirection,WindDirectionDegrees,WindSpeedMPH,WindSpeedGustMPH,Humidity,HourlyPrecipIn,Conditions,Clouds,dailyrainin,SoftwareType,DateUTC
2013-05-17 00:03:00,65.0,-99.9,-100.00,South,179,1.0,-999.0,-999,-99.99,,,-99.99,,2013-05-17 04:03:00,
2013-05-17 00:13:00,65.0,-99.9,-100.00,South,179,1.0,-999.0,-999,-99.99,,,-99.99,,2013-05-17 04:13:00,
2013-05-17 00:23:00,63.0,-99.9,-100.00,South,179,0.0,-999.0,-999,-99.99,,,-99.99,,2013-05-17 04:23:00,
2013-05-17 00:34:00,63.0,-99.9,-100.00,South,179,0.0,-999.0,-999,-99.99,,,-99.99,,2013-05-17 04:34:00,
2013-05-17 00:43:00,63.0,-99.9,-100.00,South,179,0.0,-999.0,-999,-99.99,,,-99.99,,2013-05-17 04:43:00,
2013-05-17 00:53:00,63.0,-99.9,-100.00,South,179,0.0,-999.0,-999,-99.99,,,-99.99,,2013-05-17 04:53:00,
2013-05-17 01:03:00,62.0,-99.9,-100.00,South,179,0.0,-999.0,-999,-99.99,,,-99.99,,2013-05-17 05:03:00,
2013-05-17 01:14:00,62.0,-99.9,-100.00,South,179,0.0,-999.0,-999,-99.99,,,-99.99,,2013-05-17 05:14:00,
2013-05-17 01:22:00,61.0,-99.9,-100.00,South,179,0.0,-999.0,-999,-99.99,,,-99.99,,2013-05-17 05:22:00,
2013-05-17 01:32:00,61.0,-99.9,-100.00,South,179,0.0,-999.0,-999,-99.99,,,-99.99,,2013-05-17 05:32:00,
2013-05-17 01:43:00,61.0,-99.9,-100.00,South,179,0.0,-999.0,-999,-99.99,,,-99.99,,2013-05-17 05:43:00,
2013-05-17 01:52:00,60.0,-99.9,-100.00,South,179,0.0,-999.0,-999,-99.99,,,-99.99,,2013-05-17 05:52:00,
2013-05-17 02:02:00,60.0,-99.9,-100.00,South,179,0.0,-999.0,-999,-99.99,,,-99.99,,2013-05-17 06:02:00,
2013-05-17 02:12:00,60.0,-99.9,-100.00,South,179,0.0,-999.0,-999,-99.99,,,-99.99,,2013-05-17 06:12:00,
2013-05-17 02:22:00,60.0,-99.9,-100.00,South,179,0.0,-999.0,-999,-99.99,,,-99.99,,2013-05-17 06:22:00,
2013-05-17 02:32:00,60.0,-99.9,-100.00,South,179,0.0,-999.0,-999,-99.99,,,-99.99,,2013-05-17 06:32:00,
2013-05-17 02:42:00,60.0,-99.9,-100.00,South,179,0.0,-999.0,-999,-99.99,,,-99.99,,2013-05-17 06:42:00,
2013-05-17 02:52:00,60.0,-99.9,-100.00,South,179,0.0,-999.0,-999,-99.99,,,-99.99,,2013-05-17 06:52:00,
2013-05-17 03:03:00,60.0,-99.9,-100.00,South,179,0.0,-999.0,-999,-99.99,,,-99.99,,2013-05-17 07:03:00,
2013-05-17 03:11:00,60.0,-99.9,-100.00,South,179,0.0,-999.0,-999,-99.99,,,-99.99,,2013-05-17 07:11:00,
2013-05-17 03:21:00,59.0,-99.9,-100.00,South,179,0.0,-999.0,-999,-99.99,,,-99.99,,2013-05-17 07:21:00,
2013-05-17 03:32:00,59.0,-99.9,-100.00,South,179,0.0,-999.0,-999,-99.99,,,-99.99,,2013-05-17 07:32:00,
2013-05-17 03:43:00,59.0,-99.9,-100.00,South,179,0.0,-999.0,-999,-99.99,,,-99.99,,2013-05-17 07:43:00,
2013-05-17 03:53:00,59.0,-99.9,-100.00,South,179,0.0,-999.0,-999,-99.99,,,-99.99,,2013-05-17 07:53:00,
2013-05-17 04:03:00,57.0,-99.9,-100.00,South,179,0.0,-999.0,-999,-99.99,,,-99.99,,2013-05-17 08:03:00,
2013-05-17 04:12:00,57.0,-99.9,-100.00,South,179,0.0,-999.0,-999,-99.99,,,-99.99,,2013-05-17 08:12:00,
2013-05-17 04:23:00,58.0,-99.9,-100.00,South,179,0.0,-999.0,-999,-99.99,,,-99.99,,2013-05-17 08:23:00,
2013-05-17 04:34:00,56.0,-99.9,-100.00,South,179,0.0,-999.0,-999,-99.99,,,-99.99,,2013-05-17 08:34:00,
2013-05-17 04:43:00,56.0,-99.9,-100.00,South,179,0.0,-999.0,-999,-99.99,,,-99.99,,2013-05-17 08:43:00,
2013-05-17 04:52:00,57.0,-99.9,-100.00,South,179,0.0,-999.0,-999,-99.99,,,-99.99,,2013-05-17 08:52:00,
2013-05-17 05:02:00,57.0,-99.9,-100.00,South,179,0.0,-999.0,-999,-99.99,,,-99.99,,2013-05-17 09:02:00,
2013-05-17 05:12:00,57.0,-99.9,-100.00,South,179,0.0,-999.0,-999,-99.99,,,-99.99,,2013-05-17 09:12:00,
2013-05-17 05:23:00,57.0,-99.9,-100.00,South,179,0.0,-999.0,-999,-99.99,,,-99.99,,2013-05-17 09:23:00,
2013-05-17 05:33:00,57.0,-99.9,-100.00,South,179,0.0,-999.0,-999,-99.99,,,-99.99,,2013-05-17 09:33:00,
2013-05-17 05:42:00,57.0,-99.9,-100.00,South,179,0.0,-999.0,-999,-99.99,,,-99.99,,2013-05-17 09:42:00,
2013-05-17 05:53:00,57.0,-99.9,-100.00,SE,145,0.0,-999.0,-999,-99.99,,,-99.99,,2013-05-17 09:53:00,
2013-05-17 06:03:00,57.0,-99.9,-100.00,SE,129,1.0,-999.0,-999,-99.99,,,-99.99,,2013-05-17 10:03:00,
2013-05-17 06:12:00,57.0,-99.9,-100.00,SE,129,1.0,-999.0,-999,-99.99,,,-99.99,,2013-05-17 10:12:00,
2013-05-17 06:23:00,56.0,-99.9,-100.00,ENE,75,1.0,-999.0,-999,-99.99,,,-99.99,,2013-05-17 10:23:00,
2013-05-17 06:33:00,56.0,-99.9,-100.00,NE,43,2.0,-999.0,-999,-99.99,,,-99.99,,2013-05-17 10:33:00,
2013-05-17 06:42:00,56.0,-99.9,-100.00,NE,43,2.0,-999.0,-999,-99.99,,,-99.99,,2013-05-17 10:42:00,
2013-05-17 06:54:00,56.0,-99.9,-100.00,East,101,1.0,-999.0,-999,-99.99,,,-99.99,,2013-05-17 10:54:00,
2013-05-17 07:02:00,56.0,-99.9,-100.00,East,97,1.0,-999.0,-999,-99.99,,,-99.99,,2013-05-17 11:02:00,
2013-05-17 07:12:00,56.0,-99.9,-100.00,East,97,1.0,-999.0,-999,-99.99,,,-99.99,,2013-05-17 11:12:00,
2013-05-17 07:23:00,56.0,-99.9,-100.00,North,10,5.0,-999.0,-999,-99.99,,,-99.99,,2013-05-17 11:23:00,
2013-05-17 07:34:00,56.0,-99.9,-100.00,North,5,4.0,-999.0,-999,-99.99,,,-99.99,,2013-05-17 11:34:00,
2013-05-17 07:42:00,56.0,-99.9,-100.00,North,5,4.0,-999.0,-999,-99.99,,,-99.99,,2013-05-17 11:42:00,
2013-05-17 07:53:00,56.0,-99.9,-100.00,East,80,1.0,-999.0,-999,-99.99,,,-99.99,,2013-05-17 11:53:00,
2013-05-17 08:03:00,56.0,-99.9,-100.00,ESE,116,0.0,-999.0,-999,-99.99,,,-99.99,,2013-05-17 12:03:00,
2013-05-17 08:12:00,56.0,-99.9,-100.00,ESE,116,0.0,-999.0,-999,-99.99,,,-99.99,,2013-05-17 12:12:00,
2013-05-17 08:23:00,57.0,-99.9,-100.00,East,84,8.0,-999.0,-999,-99.99,,,-99.99,,2013-05-17 12:23:00,
2013-05-17 08:33:00,58.0,-99.9,-100.00,NNE,20,3.0,-999.0,-999,-99.99,,,-99.99,,2013-05-17 12:33:00,
2013-05-17 08:43:00,58.0,-99.9,-100.00,NNE,20,3.0,-999.0,-999,-99.99,,,-99.99,,2013-05-17 12:43:00,
2013-05-17 08:53:00,58.0,-99.9,-100.00,ENE,72,2.0,-999.0,-999,-99.99,,,-99.99,,2013-05-17 12:53:00,
2013-05-17 09:04:00,60.0,-99.9,-100.00,ENE,67,5.0,-999.0,-999,-99.99,,,-99.99,,2013-05-17 13:04:00,
2013-05-17 09:12:00,60.0,-99.9,-100.00,ENE,67,5.0,-999.0,-999,-99.99,,,-99.99,,2013-05-17 13:12:00,
2013-05-17 09:23:00,61.0,-99.9,-100.00,NNE,14,3.0,-999.0,-999,-99.99,,,-99.99,,2013-05-17 13:23:00,
2013-05-17 09:33:00,63.0,-99.9,-100.00,ESE,109,3.0,-999.0,-999,-99.99,,,-99.99,,2013-05-17 13:33:00,
2013-05-17 09:42:00,63.0,-99.9,-100.00,ESE,109,3.0,-999.0,-999,-99.99,,,-99.99,,2013-05-17 13:42:00,
2013-05-17 09:52:00,63.0,-99.9,-100.00,East,98,1.0,-999.0,-999,-99.99,,,-99.99,,2013-05-17 13:52:00,
2013-05-17 10:02:00,64.0,-99.9,-100.00,East,80,2.0,-999.0,-999,-99.99,,,-99.99,,2013-05-17 14:02:00,
2013-05-17 10:13:00,64.0,-99.9,-100.00,East,80,2.0,-999.0,-999,-99.99,,,-99.99,,2013-05-17 14:13:00,
2013-05-17 10:22:00,65.0,-99.9,-100.00,East,96,2.0,-999.0,-999,-99.99,,,-99.99,,2013-05-17 14:22:00,
2013-05-17 10:34:00,65.0,-99.9,-100.00,East,96,2.0,-999.0,-999,-99.99,,,-99.99,,2013-05-17 14:34:00,
2013-05-17 10:43:00,65.0,-99.9,-100.00,East,96,2.0,-999.0,-999,-99.99,,,-99.99,,2013-05-17 14:43:00,
2013-05-17 10:53:00,65.0,-99.9,-100.00,East,96,2.0,-999.0,-999,-99.99,,,-99.99,,2013-05-17 14:53:00,
2013-05-17 21:24:00,68.0,-99.9,-100.00,NNE,23,0.0,-999.0,-999,-99.99,,,-99.99,,2013-05-18 01:24:00,
2013-05-17 21:32:00,68.0,-99.9,-100.00,NNE,23,0.0,-999.0,-999,-99.99,,,-99.99,,2013-05-18 01:32:00,
2013-05-17 21:43:00,68.0,-99.9,-100.00,NNE,23,0.0,-999.0,-999,-99.99,,,-99.99,,2013-05-18 01:43:00,
2013-05-17 21:52:00,67.0,-99.9,-100.00,NNE,23,0.0,-999.0,-999,-99.99,,,-99.99,,2013-05-18 01:52:00,
2013-05-17 22:03:00,67.0,-99.9,-100.00,NNE,23,0.0,-999.0,-999,-99.99,,,-99.99,,2013-05-18 02:03:00,
2013-05-17 22:12:00,67.0,-99.9,-100.00,NNE,23,0.0,-999.0,-999,-99.99,,,-99.99,,2013-05-18 02:12:00,
2013-05-17 22:23:00,67.0,-99.9,-100.00,NNE,23,0.0,-999.0,-999,-99.99,,,-99.99,,2013-05-18 02:23:00,
2013-05-17 22:32:00,67.0,-99.9,-100.00,NNE,23,0.0,-999.0,-999,-99.99,,,-99.99,,2013-05-18 02:32:00,
2013-05-17 22:43:00,67.0,-99.9,-100.00,NNE,23,0.0,-999.0,-999,-99.99,,,-99.99,,2013-05-18 02:43:00,
2013-05-17 22:54:00,66.0,-99.9,-100.00,NNE,23,0.0,-999.0,-999,-99.99,,,-99.99,,2013-05-18 02:54:00,
2013-05-17 23:03:00,65.0,-99.9,-100.00,NE,47,4.0,-999.0,-999,-99.99,,,-99.99,,2013-05-18 03:03:00,
2013-05-17 23:12:00,65.0,-99.9,-100.00,NE,47,4.0,-999.0,-999,-99.99,,,-99.99,,2013-05-18 03:12:00,
2013-05-17 23:23:00,64.0,-99.9,-100.00,NNE,16,4.0,-999.0,-999,-99.99,,,-99.99,,2013-05-18 03:23:00,
2013-05-17 23:33:00,64.0,-99.9,-100.00,East,92,4.0,-999.0,-999,-99.99,,,-99.99,,2013-05-18 03:33:00,
2013-05-17 23:43:00,64.0,-99.9,-100.00,East,92,4.0,-999.0,-999,-99.99,,,-99.99,,2013-05-18 03:43:00,
2013-05-17 23:53:00,63.0,-99.9,-100.00,East,100,1.0,-999.0,-999,-99.99,,,-99.99,,2013-05-18 03:53:00,